Regional Weather Roundup
Issued by NWS

Home | Current Version | Previous Version | Graphics & Text | Print | Product List | Glossary On
Versions: 1 2 3 4 5 6 7 8 9 10 11 12 13 14 15 16 17 18 19 20 21 22 23 24 25 26 27 28 29 30 31 32 33 34 35 36 37 38 39 40 41 42 43 44 45 46 47 48 49 50
000
ASUS44 KMEG 241600
RWRTN
TENNESSEE HOURLY STATE WEATHER ROUNDUP
NATIONAL WEATHER SERVICE MEMPHIS TN
1100 AM CDT SAT JUN 24 2017

TNZ002-004-019-021-049-052-054-088>092-241700-
WEST TENNESSEE

CITY           SKY/WX    TMP DP  RH WIND       PRES   REMARKS
MEMPHIS INTL   PTSUNNY   79  63  57 N6        30.10S
NWS MEMPHIS      N/A     78 N/A N/A MISG        N/A
JACKSON        PTSUNNY   78  63  59 N12       30.10R
$$

TNZ008-025-027-028-033-062-065-066-241700-
NORTH MIDDLE TENNESSEE

CITY           SKY/WX    TMP DP  RH WIND       PRES   REMARKS
NASHVILLE      PTSUNNY   82  65  56 W9        30.06R
CLARKSVILLE    CLOUDY    75  59  57 NW7       30.08R
SMYRNA         MOSUNNY   80  65  59 N13       30.06R
CROSSVILLE     SUNNY     76  61  59 N8        30.08R
$$

TNZ061-075-076-078-094-096-097-241700-
SOUTH MIDDLE TENNESSEE

CITY           SKY/WX    TMP DP  RH WIND       PRES   REMARKS
$$

TNZ017-018-042-046-047-241700-
NORTHEAST TENNESSEE

CITY           SKY/WX    TMP DP  RH WIND       PRES   REMARKS
TRI CITIES     PTSUNNY   74  69  85 SW5       30.03R
$$

TNZ012-013-036-069-073-074-241700-
CENTRAL EAST TENNESSEE

CITY           SKY/WX    TMP DP  RH WIND       PRES   REMARKS
KNOXVILLE      CLOUDY    76  70  82 SW3       30.00S
OAK RIDGE      PTSUNNY   80  70  71 CALM      30.01S
GATLINBURG     PTSUNNY   75  70  83 W6        30.01R
$$

TNZ083-085-099-241700-
SOUTHEAST TENNESSEE

CITY           SKY/WX    TMP DP  RH WIND       PRES   REMARKS
CHATTANOOGA    CLOUDY    82  72  71 VRB3      30.01R
$$

SKY/WX REPORTED AS FAIR MEANS FEW OR NO CLOUDS BELOW
12 THOUSAND FEET.




USA.gov is the U.S. government's official web portal to all federal, state and local government web resources and services.